Maersk Bali — 9V7499 — position and weather

sailwx.info

Track history (hours):
 
Tides and Currents Weather Stations Pressure Air Temp Water Temp Dewpoint Dewpoint Depression Visibility Wind Speed Wind Dir Waves Ship Positions

Maersk Bali

Last reported at 2014-Jul-28 22:32 UTC. Time now 2014-Jul-29 12:46 UTC.
Position N 44°10' E 036°16'.

Length 223 m; draft 8.6 m.

Type: Cargo ship. MMSI: 563102000.

Date/timePositionNaut miles runAvg speedWind from/ knotsBaromVisibWave heightAir tempDewpointWater temp
2014-Jul-28 22:32N 44°10' E 036°16'59 9.9
2014-Jul-28 16:33N 44°15' E 034°54'10 9.9
2014-Jul-28 15:33N 44°15' E 034°40'10 9.6
2014-Jul-28 14:33N 44°15' E 034°26'9 9.5
2014-Jul-28 13:34N 44°15' E 034°13'195 5.7
2014-Jul-27 03:08N 46°36' E 031°01'3 5.1
2014-Jul-27 02:34N 46°34' E 031°05'1 1.4
2014-Jul-27 01:31N 46°34' E 031°07'0 0.0
2014-Jul-27 00:31N 46°34' E 031°07'0 0.0
2014-Jul-26 23:31N 46°34' E 031°07'19 1.1
2014-Jul-26 06:10N 46°17' E 030°58'911.3
2014-Jul-26 05:20N 46°10' E 031°07'1910.4
2014-Jul-26 03:33N 45°51' E 031°09'1211.6
2014-Jul-26 02:33N 45°40' E 031°06'1211.6
2014-Jul-26 01:33N 45°28' E 031°04'1111.4
2014-Jul-26 00:33N 45°17' E 031°00'27110.8
2014-Jul-24 23:28N 41°01' E 028°60'8 9.0
2014-Jul-24 22:33N 40°53' E 028°55'9 8.5
2014-Jul-24 21:29N 40°46' E 028°48'1 1.3
2014-Jul-24 20:28N 40°46' E 028°46'1 0.6
2014-Jul-24 19:32N 40°46' E 028°47'0 0.4
2014-Jul-24 18:25N 40°46' E 028°47'0 0.5
2014-Jul-24 17:31N 40°47' E 028°47'0 0.2
2014-Jul-24 16:33N 40°47' E 028°47'1 0.6
2014-Jul-24 15:33N 40°47' E 028°47'10 0.5
2014-Jul-23 19:28N 40°56' E 028°41'5 5.0
2014-Jul-23 18:32N 40°52' E 028°40'10 9.6
2014-Jul-23 17:33N 40°46' E 028°49'1111.0
2014-Jul-23 16:33N 40°45' E 029°04'1111.1
2014-Jul-23 15:33N 40°45' E 029°18'1611.4
2014-Jul-23 14:08N 40°45' E 029°40'10 1.0
2014-Jul-23 04:33N 40°44' E 029°27'8 7.8
2014-Jul-23 03:33N 40°43' E 029°17'2 1.6
2014-Jul-23 02:33N 40°43' E 029°15'1010.3
2014-Jul-23 01:33N 40°43' E 029°02'1313.2
2014-Jul-23 00:33N 40°43' E 028°44'2613.0
2014-Jul-22 22:33N 40°43' E 028°10'10012.5
2014-Jul-22 14:33N 40°01' E 026°11'15 7.2
2014-Jul-22 12:32N 39°54' E 025°54'1210.1
2014-Jul-22 11:19N 39°44' E 025°46'5715.1
2014-Jul-22 07:32N 38°52' E 025°14'1615.6
2014-Jul-22 06:29N 38°38' E 025°03'6015.4
2014-Jul-22 02:33N 37°47' E 024°21'1815.7
2014-Jul-22 01:26N 37°33' E 024°09'1515.6
2014-Jul-22 00:28N 37°19' E 024°00'1715.8
2014-Jul-21 23:25N 37°05' E 023°51'1415.9
2014-Jul-21 22:33N 36°52' E 023°43'1715.4
2014-Jul-21 21:25N 36°37' E 023°34'38115.3
2014-Jul-20 20:32N 35°50' E 015°45'1616.4
2014-Jul-20 19:33N 35°49' E 015°25'1616.4
2014-Jul-20 18:33N 35°49' E 015°05'1616.5
2014-Jul-20 17:33N 35°48' E 014°45'1010.1
2014-Jul-20 16:33N 35°49' E 014°32'0 0.0
2014-Jul-20 14:30N 35°49' E 014°32'0 0.0
2014-Jul-20 13:33N 35°49' E 014°32'0 0.0
2014-Jul-20 12:33N 35°49' E 014°32'0 0.0
2014-Jul-20 11:27N 35°49' E 014°32'0 0.0
2014-Jul-20 08:30N 35°49' E 014°32'0 0.0
2014-Jul-20 07:27N 35°49' E 014°32'0 0.0
2014-Jul-20 05:18N 35°49' E 014°32'0 0.0
2014-Jul-20 04:27N 35°49' E 014°32'0 0.0
2014-Jul-20 03:33N 35°49' E 014°32'0 0.0
2014-Jul-20 00:27N 35°49' E 014°32'0 0.0
2014-Jul-19 23:33N 35°49' E 014°32'0 0.0
2014-Jul-19 22:33N 35°49' E 014°32'0 0.2
2014-Jul-19 20:11N 35°49' E 014°32'3 4.4
2014-Jul-19 19:33N 35°47' E 014°34'1514.0
2014-Jul-19 18:27N 35°49' E 014°15'1819.7
2014-Jul-19 17:33N 35°59' E 013°58'2019.9
2014-Jul-19 16:33N 36°11' E 013°37'2020.1
2014-Jul-19 15:33N 36°22' E 013°17'2020.2
2014-Jul-19 14:33N 36°34' E 012°56'1818.3
2014-Jul-19 13:33N 36°45' E 012°38'2017.4
2014-Jul-19 12:25N 36°56' E 012°17'1416.9
2014-Jul-19 11:33N 37°04' E 012°02'  
Track history (hours):
 
Tides and Currents Weather Stations Pressure Air Temp Water Temp Dewpoint Dewpoint Depression Visibility Wind Speed Wind Dir Waves Ship Positions

Maersk Bali

Last reported at 2014-Jul-28 22:32 UTC. Time now 2014-Jul-29 12:46 UTC.
Position N 44°10' E 036°16'.

Length 223 m; draft 8.6 m.

Type: Cargo ship. MMSI: 563102000.

Date/timePositionNaut miles runAvg speedWind from/ knotsBaromVisibWave heightAir tempDewpointWater temp
2014-Jul-28 22:32N 44°10' E 036°16'59 9.9
2014-Jul-28 16:33N 44°15' E 034°54'10 9.9
2014-Jul-28 15:33N 44°15' E 034°40'10 9.6
2014-Jul-28 14:33N 44°15' E 034°26'9 9.5
2014-Jul-28 13:34N 44°15' E 034°13'195 5.7
2014-Jul-27 03:08N 46°36' E 031°01'3 5.1
2014-Jul-27 02:34N 46°34' E 031°05'1 1.4
2014-Jul-27 01:31N 46°34' E 031°07'0 0.0
2014-Jul-27 00:31N 46°34' E 031°07'0 0.0
2014-Jul-26 23:31N 46°34' E 031°07'19 1.1
2014-Jul-26 06:10N 46°17' E 030°58'911.3
2014-Jul-26 05:20N 46°10' E 031°07'1910.4
2014-Jul-26 03:33N 45°51' E 031°09'1211.6
2014-Jul-26 02:33N 45°40' E 031°06'1211.6
2014-Jul-26 01:33N 45°28' E 031°04'1111.4
2014-Jul-26 00:33N 45°17' E 031°00'27110.8
2014-Jul-24 23:28N 41°01' E 028°60'8 9.0
2014-Jul-24 22:33N 40°53' E 028°55'9 8.5
2014-Jul-24 21:29N 40°46' E 028°48'1 1.3
2014-Jul-24 20:28N 40°46' E 028°46'1 0.6
2014-Jul-24 19:32N 40°46' E 028°47'0 0.4
2014-Jul-24 18:25N 40°46' E 028°47'0 0.5
2014-Jul-24 17:31N 40°47' E 028°47'0 0.2
2014-Jul-24 16:33N 40°47' E 028°47'1 0.6
2014-Jul-24 15:33N 40°47' E 028°47'10 0.5
2014-Jul-23 19:28N 40°56' E 028°41'5 5.0
2014-Jul-23 18:32N 40°52' E 028°40'10 9.6
2014-Jul-23 17:33N 40°46' E 028°49'1111.0
2014-Jul-23 16:33N 40°45' E 029°04'1111.1
2014-Jul-23 15:33N 40°45' E 029°18'1611.4
2014-Jul-23 14:08N 40°45' E 029°40'10 1.0
2014-Jul-23 04:33N 40°44' E 029°27'8 7.8
2014-Jul-23 03:33N 40°43' E 029°17'2 1.6
2014-Jul-23 02:33N 40°43' E 029°15'1010.3
2014-Jul-23 01:33N 40°43' E 029°02'1313.2
2014-Jul-23 00:33N 40°43' E 028°44'2613.0
2014-Jul-22 22:33N 40°43' E 028°10'10012.5
2014-Jul-22 14:33N 40°01' E 026°11'15 7.2
2014-Jul-22 12:32N 39°54' E 025°54'1210.1
2014-Jul-22 11:19N 39°44' E 025°46'5715.1
2014-Jul-22 07:32N 38°52' E 025°14'1615.6
2014-Jul-22 06:29N 38°38' E 025°03'6015.4
2014-Jul-22 02:33N 37°47' E 024°21'1815.7
2014-Jul-22 01:26N 37°33' E 024°09'1515.6
2014-Jul-22 00:28N 37°19' E 024°00'1715.8
2014-Jul-21 23:25N 37°05' E 023°51'1415.9
2014-Jul-21 22:33N 36°52' E 023°43'1715.4
2014-Jul-21 21:25N 36°37' E 023°34'38115.3
2014-Jul-20 20:32N 35°50' E 015°45'1616.4
2014-Jul-20 19:33N 35°49' E 015°25'1616.4
2014-Jul-20 18:33N 35°49' E 015°05'1616.5
2014-Jul-20 17:33N 35°48' E 014°45'1010.1
2014-Jul-20 16:33N 35°49' E 014°32'0 0.0
2014-Jul-20 14:30N 35°49' E 014°32'0 0.0
2014-Jul-20 13:33N 35°49' E 014°32'0 0.0
2014-Jul-20 12:33N 35°49' E 014°32'0 0.0
2014-Jul-20 11:27N 35°49' E 014°32'0 0.0
2014-Jul-20 08:30N 35°49' E 014°32'0 0.0
2014-Jul-20 07:27N 35°49' E 014°32'0 0.0
2014-Jul-20 05:18N 35°49' E 014°32'0 0.0
2014-Jul-20 04:27N 35°49' E 014°32'0 0.0
2014-Jul-20 03:33N 35°49' E 014°32'0 0.0
2014-Jul-20 00:27N 35°49' E 014°32'0 0.0
2014-Jul-19 23:33N 35°49' E 014°32'0 0.0
2014-Jul-19 22:33N 35°49' E 014°32'0 0.2
2014-Jul-19 20:11N 35°49' E 014°32'3 4.4
2014-Jul-19 19:33N 35°47' E 014°34'1514.0
2014-Jul-19 18:27N 35°49' E 014°15'1819.7
2014-Jul-19 17:33N 35°59' E 013°58'2019.9
2014-Jul-19 16:33N 36°11' E 013°37'2020.1
2014-Jul-19 15:33N 36°22' E 013°17'2020.2
2014-Jul-19 14:33N 36°34' E 012°56'1818.3
2014-Jul-19 13:33N 36°45' E 012°38'2017.4
2014-Jul-19 12:25N 36°56' E 012°17'1416.9
2014-Jul-19 11:33N 37°04' E 012°02'  

Dump ship's entire track history